This is the latest recevied weather packets stored in our database for station/object KC1IUC-13. If no packets are shown the sender has not sent any weather packets the latest 10 day(s).
| Time | Temp. | Humidity | Pressure | Rain* | Wind** | Luminosity | Snow |
|---|---|---|---|---|---|---|---|
| 1777820944 | 11.11° C | 59% | 1006.6 hPa | 0 mm | - | 219 W/m² | - |
| 1777820404 | 10.56° C | 59% | 1006.6 hPa | 0 mm | - | 232 W/m² | - |
| 1777820044 | 10° C | 59% | 1006.6 hPa | 0 mm | - | 188 W/m² | - |
| 1777819504 | 10° C | 59% | 1007 hPa | 0 mm | - | 165 W/m² | - |
| 1777818964 | 10.56° C | 59% | 1006.6 hPa | 0 mm | - | 181 W/m² | - |
| 1777818424 | 11.11° C | 60% | 1006.6 hPa | 0 mm | - | 234 W/m² | - |
| 1777817884 | 11.11° C | 61% | 1006.6 hPa | 0 mm | - | 199 W/m² | - |
| 1777817344 | 10° C | 60% | 1006.6 hPa | 0 mm | - | 267 W/m² | - |
| 1777816804 | 10.56° C | 60% | 1006.6 hPa | 0 mm | - | 177 W/m² | - |
| 1777816444 | 10.56° C | 60% | 1006.3 hPa | 0 mm | - | 169 W/m² | - |
| 1777815904 | 11.11° C | 61% | 1006.3 hPa | 0 mm | - | 183 W/m² | - |
| 1777815364 | 11.11° C | 61% | 1006.3 hPa | 0 mm | - | 404 W/m² | - |
| 1777814824 | 11.11° C | 62% | 1006.6 hPa | 0 mm | - | 185 W/m² | - |
| 1777814284 | 11.11° C | 63% | 1006.3 hPa | 0 mm | - | 328 W/m² | - |
| 1777813744 | 10° C | 63% | 1006.3 hPa | 0 mm | - | 373 W/m² | - |
| 1777813204 | 9.44° C | 63% | 1006.6 hPa | 0 mm | - | 74 W/m² | - |
| 1777812844 | 9.44° C | 64% | 1006.6 hPa | 0 mm | - | 98 W/m² | - |
| 1777812303 | 9.44° C | 64% | 1006.3 hPa | 0 mm | - | 66 W/m² | - |
| 1777811764 | 8.89° C | 65% | 1006.3 hPa | 0 mm | - | 88 W/m² | - |
| 1777811224 | 8.89° C | 65% | 1006.6 hPa | 0 mm | - | 62 W/m² | - |
| 1777810684 | 8.89° C | 65% | 1006.6 hPa | 0 mm | - | 56 W/m² | - |
| 1777810144 | 8.89° C | 66% | 1006.3 hPa | 0 mm | - | 67 W/m² | - |
| 1777809604 | 8.33° C | 66% | 1006.3 hPa | 0 mm | - | 109 W/m² | - |
| 1777809244 | 8.33° C | 66% | 1006.3 hPa | 0 mm | - | 85 W/m² | - |
| 1777808704 | 7.78° C | 66% | 1006.3 hPa | 0 mm | - | 74 W/m² | - |
* Rain latest hour (hover to see other rain measurements)
** Current wind speed in m/s (hover to see current wind gust speed)